DW6949 Weather Reports


time (UTC)temp
C
wind
direction
speed
KPH
gust
KPH
rain 1hr
cm
rain 24hr
cm
rain mn
cm
humidity
%
barometer
mb
20260502163047 20 151 4.8 16.1 0.00 7.09 0.00 58 1021.6
20260502161553 19 139 3.2 16.1 0.00 7.09 0.00 62 1021.7
20260502151557 17 129 1.6 14.5 0.00 7.44 0.00 72 1021.5
20260502123046 11 161 1.6 8.0 0.00 8.08 0.00 92 1020.0
20260502121549 11 176 4.8 11.3 0.00 8.08 0.00 92 1019.7
20260502120106 11 153 1.6 9.7 0.00 8.08 0.00 91 1019.5
20260502114630 11 165 3.2 6.4 0.00 8.10 0.00 91 1019.1
20260502113053 11 151 1.6 8.0 0.00 8.10 0.00 90 1019.1
20260502111553 11 167 3.2 9.7 0.00 8.10 0.00 90 1019.2
20260502110046 11 158 1.6 6.4 0.00 8.10 0.00 90 1019.0
20260502104554 11 160 1.6 6.4 0.00 8.13 0.00 90 1018.8
20260502103050 11 155 3.2 6.4 0.00 8.13 0.00 90 1018.5
20260502101613 12 154 1.6 4.8 0.00 8.13 0.00 90 1018.4
20260502100109 12 153 0.0 4.8 0.00 8.13 0.00 89 1018.1
20260502070053 12 129 1.6 6.4 0.00 10.03 0.00 90 1017.2
20260502064612 13 143 1.6 16.1 0.00 10.24 0.00 90 1017.1
20260502063054 13 145 1.6 11.3 0.00 10.24 0.00 91 1017.2
20260502061546 13 148 3.2 14.5 0.00 10.24 0.00 91 1016.9
20260502060050 13 216 0.0 9.7 0.00 10.24 0.00 92 1016.7
20260502054545 13 146 0.0 9.7 0.00 10.41 0.00 92 1016.7
20260502053057 13 160 3.2 12.9 0.00 10.41 0.00 92 1016.9
20260502051550 13 127 1.6 11.3 0.00 10.41 0.00 93 1016.6
20260502050048 13 125 1.6 11.3 0.00 10.41 0.00 93 1016.5
20260502044545 13 136 0.0 8.0 0.00 10.85 10.41 93 1016.2
20260502043113 13 155 0.0 16.1 0.00 10.85 10.41 93 1016.3
20260502041601 13 205 3.2 16.1 0.00 10.85 10.41 93 1016.6
20260502040122 13 135 3.2 16.1 0.00 10.85 10.41 94 1016.3
20260502034546 13 183 4.8 17.7 0.03 10.85 10.41 94 1016.5
20260502033045 13 210 3.2 14.5 0.03 10.85 10.41 95 1016.3
20260502031551 13 153 4.8 14.5 0.03 10.85 10.41 95 1015.9
20260502030057 13 152 3.2 14.5 0.03 10.85 10.41 95 1015.6
20260502024549 13 131 4.8 19.3 0.05 10.82 10.39 95 1015.1
20260502023052 13 169 3.2 16.1 0.08 10.82 10.39 95 1014.9
20260502021545 14 181 3.2 9.7 0.13 10.82 10.39 95 1014.5
20260502020048 14 193 3.2 9.7 0.15 10.82 10.39 95 1014.4
20260502014545 14 155 1.6 9.7 0.25 10.74 10.34 96 1014.3
20260502013057 14 173 3.2 14.5 0.28 10.74 10.31 96 1014.3
20260502011556 14 182 6.4 14.5 0.25 10.69 10.26 96 1014.0
20260502010045 14 198 4.8 17.7 0.28 10.64 10.24 96 1013.5
20260502004549 15 281 9.7 14.5 0.36 10.52 10.08 96 1013.9
20260502003052 15 273 4.8 12.9 0.74 10.46 10.03 96 1013.1
20260502001550 15 153 1.6 9.7 0.74 10.44 10.01 96 1012.8
20260502000054 15 146 4.8 14.5 0.74 10.39 9.96 96 1012.8
20260501234551 15 167 1.6 20.9 0.69 10.16 9.73 96 1012.7
20260501233047 15 145 3.2 14.5 0.28 9.73 9.30 96 1012.9
20260501231546 15 134 1.6 6.4 0.25 9.70 9.27 96 1011.0
20260501230051 15 142 0.0 12.9 0.20 9.65 9.22 96 1011.8
20260501224554 15 131 0.0 4.8 0.03 9.45 9.02 96 1011.7
20260501223051 16 128 1.6 8.0 0.10 9.45 9.02 95 1011.3
20260501221546 16 139 3.2 9.7 0.38 9.45 9.02 96 1010.9
20260501220107 16 145 1.6 6.4 0.99 9.45 9.02 96 1011.1
20260501214546 16 146 1.6 3.2 1.14 9.42 8.99 96 1011.6
20260501213048 16 139 0.0 9.7 1.17 9.35 8.92 96 1011.6
20260501211551 16 140 1.6 8.0 1.09 9.07 8.64 96 1011.5
20260501210044 16 166 3.2 9.7 0.81 8.43 8.00 96 1011.9
20260501204600 16 162 3.2 14.5 0.74 8.28 7.85 96 1009.9
20260501203046 16 144 0.0 4.8 0.64 8.18 7.75 96 1010.4
20260501201547 16 0 0.0 3.2 0.43 7.98 7.54 96 1010.8
20260501200047 16 156 1.6 8.0 0.23 7.62 7.19 96 1010.5
20260501194550 16 150 1.6 9.7 0.48 7.54 7.11 96 1009.6
20260501193049 16 139 0.0 8.0 0.51 7.54 7.11 96 1010.1
20260501191548 16 151 1.6 4.8 1.40 7.54 7.11 96 1010.2
20260501190047 16 148 0.0 4.8 1.73 7.37 6.93 96 1010.6
20260501184552 16 142 0.0 9.7 1.78 7.06 6.63 96 1010.0
20260501183104 16 122 3.2 17.7 2.49 7.04 6.60 96 1009.6
20260501181553 16 107 0.0 9.7 1.93 6.10 5.66 95 1010.3
20260501180055 16 130 1.6 8.0 1.55 5.64 5.21 95 1009.5
20260501174549 16 149 0.0 9.7 1.19 5.26 4.83 95 1010.6